[Iaude] MPEC J106: 2024 JQ2 [a=1.80,e=0.45,i=17.6,H=24.8]
    mpec at cfa.harvard.edu 
    mpec at cfa.harvard.edu
       
    Tue May  7 03:37:56 EDT 2024
    
    
  
M.P.E.C. 2024-J106                                  Issued 2024 May 7, 07:36 UT
     The Minor Planet Electronic Circulars contain information on unusual
         minor planets, routine data on comets and natural satellites,
         and occasional editorial announcements.  They are published
    on behalf of Division F of the International Astronomical Union by the
          Minor Planet Center, Smithsonian Astrophysical Observatory,
                          Cambridge, MA 02138, U.S.A.
			  
             Prepared using the Tamkin Foundation Computer Network
                              MPC at CFA.HARVARD.EDU
            URL https://www.minorplanetcenter.net/    ISSN 1523-6714
                                    2024 JQ2                                    
Observations:
     K24J02Q*1C2024 05 05.43097116 50 49.744+01 26 32.32         20.53GVEJ106G96
     K24J02Q 1C2024 05 05.43590516 50 53.876+01 28 11.68         19.86GVEJ106G96
     K24J02Q 1C2024 05 05.44084916 50 58.117+01 29 51.79         21.29GVEJ106G96
     K24J02Q 1C2024 05 05.44578016 51 02.279+01 31 31.19         20.00GVEJ106G96
     K24J02Q KC2024 05 05.46888516 51 22.021+01 39 18.90         19.90GVEJ106I52
     K24J02Q KC2024 05 05.47089516 51 23.746+01 39 59.72         19.91GVEJ106I52
     K24J02Q 1C2024 05 05.47189816 51 24.580+01 40 19.90               VEJ106G96
     K24J02Q 1C2024 05 05.47245216 51 25.090+01 40 31.70               VEJ106G96
     K24J02Q KC2024 05 05.47290816 51 25.448+01 40 40.22         19.64GVEJ106I52
     K24J02Q 1C2024 05 05.47300616 51 25.550+01 40 42.30         20.48GVEJ106G96
     K24J02Q 1C2024 05 05.47355816 51 26.030+01 40 53.10         20.41GVEJ106G96
     K24J02Q KC2024 05 05.47493316 51 27.220+01 41 21.23         20.35GVEJ106I52
     K24J02Q 1C2024 05 05.93558 16 58 32.38 +04 17 24.2          20.0 VXEJ106033
     K24J02Q 1C2024 05 05.93636 16 58 33.07 +04 17 40.4          20.3 VXEJ106033
     K24J02Q 1C2024 05 05.93713 16 58 33.74 +04 17 56.3          20.4 VXEJ106033
     K24J02Q 1C2024 05 05.93790 16 58 34.43 +04 18 11.8          20.5 VXEJ106033
     K24J02Q 1C2024 05 05.93875 16 58 35.17 +04 18 29.4          20.2 VXEJ106033
     K24J02Q KC2024 05 07.27730917 19 25.26 +11 58 45.6                VEJ106H21
     K24J02Q KC2024 05 07.28570017 19 32.89 +12 01 37.5          20.6 GVEJ106H21
     K24J02Q KC2024 05 07.29269617 19 39.28 +12 04 01.6          20.6 GVEJ106H21
Observer details:
033 Karl Schwarzschild Observatory, Tautenburg.  Observers S. Melnikov, C.
    Hogner, F. Ludwig, M. Hartmann, B. Stecklum.  Measurer B. Stecklum.
    1.34-m f/3 Schmidt + CCD.
G96 Mt. Lemmon Survey.  Observer G. J. Leonard.  Measurers T. Beuden, V. F.
    Carvajal, D. Fay, J. B. Fazekas, D. C. Fuls, A. R. Gibbs, A. D. Grauer, H.
    Groeller, J. K. Hogan, R. A. Kowalski, S. M. Larson, G. J. Leonard, D.
    Rankin, R. L. Seaman, F. C. Shelly, K. W. Wierzchos.  1.5-m reflector +
    10K CCD.
H21 Astronomical Research Observatory, Westfield.  Observer R. Holmes.
    Measurers T. Linder, R. Holmes, L. Horn.  0.76-m f/3.0 astrograph + CCD.
I52 Steward Observatory, Mt. Lemmon Station.  Observer V. F. Carvajal.
    Measurers T. Beuden, V. F. Carvajal, D. Fay, J. B. Fazekas, D. C. Fuls, A.
    R. Gibbs, A. D. Grauer, H. Groeller, J. K. Hogan, R. A. Kowalski, S. M.
    Larson, G. J. Leonard, D. Rankin, R. L. Seaman, F. C. Shelly, K. W.
    Wierzchos.  1.0-m prime focus + CCD.
Orbital elements:
2024 JQ2                                                 Earth MOID = 0.0580 AU
Epoch 2024 Mar. 31.0 TT = JDT 2460400.5                 MPC                     
M 331.30698              (2000.0)            P               Q                  
n   0.40797770     Peri.   44.98715     -0.07430643     +0.97644584             
a   1.8004391      Node   222.02515     -0.97873685     -0.11035043             
e   0.4534627      Incl.   17.61259     -0.19118771     +0.18540847             
P   2.42           H   24.89          G   0.15           U   9                  
Residuals in seconds of arc
240505 G96  0.8+  0.5+    240505 G96  0.2+  0.6+    240505 033  0.1+  0.1+
240505 G96  0.2-  0.0     240505 I52  0.3-  0.1-    240505 033  0.2+  0.2-
240505 G96  0.3+  0.2+    240505 G96  0.0   0.0     240505 033  0.0   0.0
240505 G96  0.2-  0.2-    240505 G96  0.1+  0.4-    240507 H21  0.0   0.1+
240505 I52  0.0   0.0     240505 I52  0.3+  0.1-    240507 H21  0.2-  0.3-
240505 I52  0.0   0.1+    240505 033  0.3+  0.1-    240507 H21  0.1+  0.2+
240505 G96  0.3-  0.0     240505 033  0.3+  0.1+
Ephemeris:
2024 JQ2                 a,e,i = 1.80, 0.45, 18                  q = 0.9840
Date    TT    R. A. (2000) Decl.     Delta      r    Elong.  Phase     V
2024 04 07    13 38 34.1 -44 37 56   0.2557  1.2115   141.4    31.0    23.7
...
2024 04 22    14 34 17.8 -38 28 26   0.1350  1.1267   152.6    24.3    21.9
...
2024 04 30    15 40 18.0 -23 06 26   0.08373 1.0869   161.3    17.3    20.6
...
2024 05 06    16 59 26.7 +04 40 51   0.06431 1.0603   142.2    35.7    20.5
2024 05 07    17 14 58.4 +10 24 39   0.06397 1.0562   136.3    41.3    20.7
2024 05 08    17 30 56.0 +16 03 17   0.06457 1.0522   130.3    47.0    20.8
...
2024 05 14    19 07 11.5 +41 04 04   0.08416 1.0301   101.1    74.3    22.2
...
2024 05 22    20 45 53.9 +52 41 49   0.1308  1.0068    83.9    88.7    23.6
...
2024 06 06    22 21 09.4 +56 34 15   0.2276  0.9847    76.0    91.1    24.9
A. U. Tomatic                (C) Copyright 2024 MPC           M.P.E.C. 2024-J106
    
    
More information about the Iaude
mailing list